www.pogodaiklimat.ru

Погода и климат >> Архив погоды >> Россия >> Камчатский край >> Остров Беринга


АРХИВ ПОГОДЫ на Острове Беринга

Время (UTC), дата Ветер
(напр.,м/с)
 
Видим.   Явления Облачность Т
(С)
Тd
(С)
f
(%)
Тe
(С)
Тes
(С)
Комфортность P
(гПа)
Po
(гПа)
Тmin
(С)
Tmax
(С)
R
(мм)
R24
(мм)
S
(см)
15 9.09 ЮВ 10-14
{15}
10 км слаб. дождь 10/10 300 м
[Frnb Ns]
+10.9 +10.0 94 +7 +7 1002.1 1000.0
18 9.09 ЮВ 12-16
{18}
10 км слаб. дождь 10/10 200 м
[Frnb Ns]
+10.8 +10.1 95 +6 +6 997.7 995.6
21 9.09 ЮВ 14-20
{21}
10 км слаб. дождь 10/10 300 м
[Frnb Ns]
+11.1 +10.3 95 +6 +6 989.6 987.5 +10.7 3
00 10.09 Ю 12-16
{25}
10 км слаб. дождь 10/10 300 м
[Frnb Ns]
+11.7 +11.3 97 +7 +7 984.0 981.9
03 10.09 ЮЗ 14-17
{17}
20 км {дождь} 6/3 600 м
[Sc Ci fib]
+12.3 +10.1 86 +8 +8 982.2 980.1
06 10.09 З 10-13
{18}
20 км {дождь} 4/3 600 м
[Sc Ci fib]
+12.1 +10.7 91 +8 +8 983.4 981.3
09 10.09 ЮЗ 9-12
{13}
20 км 6/6 600 м
[Sc]
+12.2 +10.2 88 +9 +9 986.7 984.6 +12.5 2
12 10.09 З 7
{12}
20 км 3/3 600 м
[Sc]
+11.9 +10.3 90 +9 +9 987.5 985.4
15 10.09 З 6 20 км 3/3 600 м
[Sc]
+11.6 +10.2 91 +9 +9 987.5 985.4
18 10.09 З 6
{10}
20 км 4/4 600 м
[Sc]
+11.3 +10.1 92 +8 +8 987.2 985.1
21 10.09 СЗ 11-13
{14}
10 км слаб. ливневой дождь 10/10 600 м
[Cb cap]
+10.7 +9.1 90 +6 +6 987.5 985.4 +10.7 0.8
00 11.09 СЗ 12-15
{16}
10 км слаб. ливневой дождь 10/10 300 м
[Cb cap]
+10.6 +9.6 94 +6 +6 987.2 985.1 +10.2
03 11.09 СЗ 11-14
{18}
10 км слаб. ливневой дождь 10/10 300 м
[Cb cap]
+10.6 +9.2 91 +6 +6 988.6 986.5
06 11.09 СЗ 11-13
{15}
20 км {ливн. осадки} 10/10 300 м
[Sc]
+10.5 +8.3 86 +6 +6 990.5 988.4
09 11.09 СЗ 11-14
{15}
20 км 10/10 300 м
[Sc]
+10.6 +8.2 85 +6 +6 992.2 990.1 +11.1 1
12 11.09 СЗ 10-17
{17}
20 км 8/8 600 м
[Sc]
+9.9 +8.0 88 +5 +5 993.7 991.6
15 11.09 СЗ 12-16
{17}
20 км 8/8 600 м
[Sc]
+11.0 +8.0 82 +7 +7 995.2 993.0
18 11.09 СЗ 13-17
{17}
20 км 10/10 600 м
[Sc]
+11.3 +7.5 77 +7 +7 997.2 995.1
21 11.09 СЗ 12-16
{17}
20 км 4/4 600 м
[Sc]
+11.6 +7.5 76 +7 +7 1000.2 998.1 +9.9
00 12.09 СЗ 12-16
{20}
20 км 3/3 600 м
[Cu med, cong]
+12.1 +6.8 70 +8 +8 1002.6 1000.4
03 12.09 СЗ 12-15
{18}
20 км 1/1 600 м
[Cu hum]
+12.3 +6.6 68 +9 +9 1004.9 1002.8
06 12.09 З 5
{15}
20 км 1/1 600 м
[Cu med, cong]
+11.9 +8.0 77 +9 +10 1007.3 1005.1
09 12.09 СЗ 5 20 км 3/3 1000 м
[Sc]
+11.0 +7.1 77 +8 +8 1009.4 1007.3 +12.4
12 12.09 СЗ 2 20 км 1/1 1000 м
[Sc]
+9.6 +7.2 85 +8 +8 1010.4 1008.3
15 12.09 СЗ 3 20 км 1/1 1000 м
[Sc]
+10.1 +8.4 89 +8 +8 1011.5 1009.3
18 12.09 СВ 2 20 км 3/3 1000 м
[Sc]
+7.6 +6.7 94 +5 +5 1011.8 1009.7
21 12.09 СВ 1 20 км 8/0
[Cs]
+10.6 +8.7 88 +10 +13 1013.3 1011.2 +6.0
00 13.09 С 2 20 км 8/0
[Cs]
+13.5 +5.4 58 +13 +19 1013.4 1011.2
03 13.09 З 3 20 км 6/0
[Cs]
+12.5 +7.1 70 +11 +16 1012.6 1010.3
06 13.09 В 3 20 км 6/3 600 м
[Sc Cs]
+11.9 +6.0 67 +10 +11 1012.5 1010.3
09 13.09 СВ 3 20 км 4/3 600 м
[Sc Ci fib]
+7.3 +5.6 89 +4 +4 1012.6 1010.4 +14.1
12 13.09 В 4 20 км 3/3 600 м
[Cu hum Ci fib]
+7.4 +5.9 90 +4 +4 1011.5 1009.3
15 13.09 СВ 3 2000 м 4/3 600 м
[Cu hum Ci fib]
+6.6 +5.1 90 +3 +3 1010.7 1008.5
18 13.09 СВ 5 20 км 10/6 600 м
[Sc Ci]
+6.9 +5.5 91 +3 +3 1009.1 1006.9
21 13.09 СВ 7
{11}
20 км 9/8 600 м
[Sc Cs]
+9.2 +4.6 73 +5 +5 1008.8 1006.6 +6.0
00 14.09 С 8-13
{14}
20 км 8/8 600 м
[Sc]
+9.7 +4.2 69 +6 +6 1007.6 1005.5
03 14.09 С 9-12
{13}
20 км 8/8 600 м
[Sc]
+10.0 +5.6 74 +6 +6 1006.6 1004.4
06 14.09 СВ 6
{12}
20 км 8/8 600 м
[Sc]
+9.5 +5.2 75 +6 +6 1007.0 1004.8
09 14.09 С 7 20 км 10/10 600 м
[Sc]
+9.5 +4.7 72 +6 +6 1008.7 1006.6 +10.5
12 14.09 С 4 20 км 4/4 600 м
[Sc]
+6.9 +4.8 86 +3 +3 1009.6 1007.4
15 14.09 С 3 20 км 10/10 600 м
[Sc]
+6.9 +4.9 87 +4 +4 1010.0 1007.8
18 14.09 С 2 20 км 10/10 600 м
[Sc]
+8.0 +4.9 81 +6 +6 1011.2 1009.0
21 14.09 СЗ 3 20 км 8/8 600 м
[Sc]
+9.3 +4.7 73 +7 +7 1012.5 1010.3 +5.6
00 15.09 З 3 20 км 8/8 600 м
[Cu Sc]
+10.8 +4.8 66 +9 +10 1013.4 1011.2
03 15.09 ЮЗ 3 20 км 3/1 600 м
[Cu med, cong Ci fib]
+11.3 +4.7 64 +10 +14 1014.4 1012.3
06 15.09 Ю 3 20 км 6/4 600 м
[Sc Cs]
+10.1 +5.5 73 +8 +8 1015.1 1013.0
09 15.09 Ю 6 20 км 6/6 600 м
[Sc]
+10.3 +8.1 86 +7 +7 1016.4 1014.2 +11.5
12 15.09 Ю 7 20 км 9/9 600 м
[Sc]
+10.5 +8.6 88 +7 +7 1017.0 1014.8
15 15.09 Ю 7
{10}
20 км 10/10 600 м
[Sc]
+10.4 +8.8 90 +7 +7 1017.1 1014.9
18 15.09 Ю 7
{11}
10 км слаб. ливневой дождь 10/10 600 м
[Cb cap]
+10.5 +9.3 92 +7 +7 1017.5 1015.3
21 15.09 Ю 7
{10}
20 км {ливн. осадки} 10/10 600 м
[Cb cap]
+10.7 +9.3 91 +7 +7 1018.2 1016.0 +10.1 0.0
00 16.09 Ю 7
{10}
10 км слаб. ливневой дождь 10/10 300 м
[Cb cap]
+10.3 +9.5 95 +6 +6 1018.5 1016.3
03 16.09 ЮЗ 5 20 км {ливн. осадки} 10/10 600 м
[Sc]
+10.9 +10.4 97 +8 +8 1017.7 1015.5
06 16.09 ЮЗ 3 20 км {ливн. осадки} 8/5 600 м
[Sc Ci sp]
+11.1 +10.2 94 +9 +9 1018.2 1016.0
09 16.09 ЮЗ 2 20 км 3/3 600 м
[Cu hum]
+10.0 +9.5 97 +8 +8 1019.0 1016.8 +11.8 0.0

 

Местоположение метеостанции Остров Беринга (Камчатский край, Россия): широта 55.20 долгота 165.90 высота над уровнем моря 18 м.

В архиве по умолчанию представлена погода на Острове Беринга за последнюю неделю. Архивные данные за месяц целиком и за предыдущие месяцы, начиная с января 2011 года, Вы можете получить, выбрав интересующий диапазон дат из раскрывающегося списка и нажав кнопку "Ввод!".


*Определитесь, кто Вы:
робот инопланетянин человек

Внимание! Время в таблицах - всемирное. Для получения местного времени необходимо прибавить поправку, которая равна 12 ч.

Смотрите также архив погоды в соседних городах и на ближайших метеорологических станциях:

Погода на Мысе Африка (Камчатский край, Россия) (196 км)
Погода в Усть-Камчатске (Камчатский край, Россия) (230 км)
Погода на Мысе Озерном (Камчатский край, Россия) (319 км)
Погода в Ключах (Камчатский край, Россия) (343 км)
Погода в Козыревске (Камчатский край, Россия) (394 км)
Погода в Семячике (Камчатский край, Россия) (404 км)
Погода в Долиновке (Камчатский край, Россия) (438 км)
Погода в Эссо (Камчатский край, Россия) (460 км)
Погода в Мильково (Камчатский край, Россия) (476 км)
Погода в Оссоре (Камчатский край, Россия) (481 км)

Пояснения к столбцам:

Ветер - указаны скорость ветра в м/с - средняя за 10 мин, порывы в срок и между сроками (в фигурных скобках) и направление, откуда дует ветер: С - северный, СВ - северо-восточный, В - восточный, ЮВ - юго-восточный, Ю - южный, ЮЗ - юго-западный, З - западный, СЗ - северо-западный.
Видимость - горизонтальная дальность видимости в метрах или километрах. При видимости от 1 до 10 км при отсутствии осадков обычно наблюдается дымка, при ухудшении видимости до 1 км и менее - туман. В сухую погоду видимость может ухудшаться дымом, пылью или мглою.
Явления - указаны атмосферные явления, наблюдавшиеся в срок или в последний час перед сроком; фигурными скобками обозначены явления, наблюдавшиеся между сроками (за 1-3 часа до срока); квадратными скобками обозначены град или гололедные отложения с указанием их диаметра в мм.
Облачность - указаны через наклонную черту общая и нижняя облачность в баллах и высота нижней границы облаков в метрах; квадратными скобками обозначены формы облаков: Ci - перистые, Cs - перисто-слоистые, Cc - перисто-кучевые, Ac - высококучевые, As - высокослоистые, Sc - слоисто-кучевые, Ns - слоисто-дождевые, Cu - кучевые, Cb - кучево-дождевые. Подробнее классификацию облаков см. в Атласе облаков (PDF).
T - Температура воздуха - температура, измеренная на высоте 2 м над землей.
Td - Температура точки росы - температура, при понижении до которой содержащийся в воздухе водяной пар достигнет насыщения.
f - Относительная влажность воздуха - влажноcть воздуха, измеренная на высоте 2 м над землей.
Te - Эффективная температура - температура, которую ощущает одетый по сезону человек в тени. Характеристика душности погоды. При расчете учитывается влияние влажности воздуха и скорости ветра на теплоощущения человека.
Tes - Эффективная температура на солнце - температура, которую ощущает человек, с поправкой на солнечный нагрев. Характеристика знойности погоды. Зависит от высоты солнца над горизонтом, облачности и скорости ветра. Ночью, в пасмурную погоду, а также при ветре 12 м/с и более поправка равна нулю.
P - Атмосферное давление - приведенное к уровню моря атмосферное давление.
Po - Атмосферное давление - измеренное на уровне метеостанции атмосферное давление.
Tmin - Минимальная температура - минимум температуры воздуха на высоте 2 м над землей.
Tmax - Максимальная температура - максимум температуры воздуха на высоте 2 м над землей.
R - Количество осадков - Количество выпавших осадков за период времени, мм. При наведении курсора мыши на число - период времени, за который выпало указанное количество осадков.
R24 - Количество осадков - Количество выпавших осадков за 24 часа, мм.
S - Снежный покров - Высота снежного покрова, см. При наведении курсора мыши на число - состояние снежного покрова и степень покрытия местности в баллах.